Peru, IN

6:11 AM EDT on August 17, 2017 (GMT -0400)
Grissom Air Reserve Base

Weather History for KGUS - June, 2013

Change the Weather History Date:

Thursday, June 13, 2013

  Actual Average Record
Temperature  
Mean Temperature 69 °F -  
Max Temperature 76 °F 77 °F 91 °F (2001)
Min Temperature 61 °F 61 °F 50 °F (2012)
Cooling Degree Days 4    
Growing Degree Days 19 (Base 50)    
Moisture  
Dew Point 64 °F    
Average Humidity 91    
Maximum Humidity 100    
Minimum Humidity 45    
Precipitation  
Precipitation 0.87 in - - ()
Sea Level Pressure  
Sea Level Pressure 29.73 in    
Wind  
Wind Speed 8 mph (NNW)    
Max Wind Speed 23 mph    
Max Gust Speed 29 mph    
Visibility 8 miles    
Events Rain , Thunderstorm    
Averages and records for this station are not official NWS values.
T = Trace of Precipitation, MM = Missing Value Source: NWS Daily Summary

Daily Weather History Graph

Daily Weather History Graph

Search for Another Location

Airport or City:

Trip Planner

Search our weather history database for the weather conditions in past years. The results will help you decide how hot, cold, wet, or windy it might be!

Date:

Astronomy

Jun. 13, 2013 Rise Set
Actual Time 6:13 AM EDT 9:16 PM EDT
Civil Twilight 5:39 AM EDT 9:49 PM EDT
Nautical Twilight 4:57 AM EDT 10:32 PM EDT
Astronomical Twilight 4:07 AM EDT 11:22 PM EDT
Moon 10:50 AM EDT (6/13) No Moon Set
Length of Visible Light 16h 10m
Length of Day
15h 03m
Waxing Crescent, 21% of the Moon is Illuminated
Jun 13
Waxing Crescent
Jun 16
First Quarter
Jun 23
Full
Jun 30
Last Quarter
Jul 8
New

Hourly Weather History & Observations

Time (EDT) Temp. Dew Point Humidity Pressure Visibility Wind Dir Wind Speed Gust Speed Precip Events Conditions
12:08 AM 66.2 °F 66.2 °F 100% 29.67 in 2.5 mi ENE 8.1 mph - N/A Rain , Thunderstorm Thunderstorms and Rain
12:13 AM 66.2 °F 66.2 °F 100% 29.67 in 5.0 mi East 5.8 mph - N/A Rain , Thunderstorm Light Thunderstorms and Rain
12:28 AM 66.2 °F 66.2 °F 100% 29.65 in 3.0 mi Variable 4.6 mph - N/A Rain , Thunderstorm Heavy Thunderstorms and Rain
12:33 AM 68.0 °F 68.0 °F 100% 29.65 in 2.5 mi NNW 4.6 mph - N/A Rain , Thunderstorm Thunderstorms and Rain
12:34 AM 68.0 °F 68.0 °F 100% 29.65 in 3.0 mi NNW 4.6 mph - N/A Rain Rain
12:39 AM 68.0 °F 68.0 °F 100% 29.65 in 4.0 mi North 2.3 mph - N/A Rain Light Rain
12:44 AM 68.0 °F 68.0 °F 100% 29.65 in 2.5 mi NNE 5.8 mph - N/A Rain Heavy Rain
12:49 AM 68.0 °F 68.0 °F 100% 29.65 in 1.8 mi ENE 5.8 mph - N/A Rain Heavy Rain
12:54 AM 68.0 °F 68.0 °F 100% 29.64 in 3.0 mi Variable 2.3 mph - N/A Rain Rain
12:58 AM 68.0 °F 68.0 °F 100% 29.62 in 6.0 mi ENE 6.9 mph - 0.58 in Rain Light Rain
1:02 AM 68.0 °F 68.0 °F 100% 29.63 in 9.0 mi ENE 6.9 mph - N/A Rain , Thunderstorm Light Thunderstorms and Rain
1:17 AM 68.0 °F 68.0 °F 100% 29.65 in 10.0 mi SE 3.5 mph - N/A   Light Drizzle
1:20 AM 68.0 °F 68.0 °F 100% 29.65 in 10.0 mi South 5.8 mph - N/A   Overcast
1:25 AM 68.0 °F 68.0 °F 100% 29.66 in 10.0 mi South 4.6 mph - N/A   Overcast
1:29 AM 68.0 °F 68.0 °F 100% 29.66 in 10.0 mi South 2.3 mph - N/A   Light Drizzle
1:38 AM 68.0 °F 68.0 °F 100% 29.66 in 9.0 mi ENE 2.3 mph - N/A Thunderstorm Overcast
1:58 AM 67.5 °F 67.5 °F 100% 29.65 in 10.0 mi NNW 2.3 mph - 0.00 in   Overcast
2:00 AM 68.0 °F 68.0 °F 100% 29.66 in 10.0 mi North 1.2 mph - N/A   Light Drizzle
2:10 AM 68.0 °F 68.0 °F 100% 29.69 in 8.0 mi NNW 11.5 mph - N/A Rain Light Rain
2:15 AM 68.0 °F 68.0 °F 100% 29.68 in 3.0 mi NW 10.4 mph - N/A Rain , Thunderstorm Heavy Rain
2:20 AM 68.0 °F 68.0 °F 100% 29.67 in 1.8 mi NW 6.9 mph - N/A Rain , Thunderstorm Heavy Rain
2:25 AM 68.0 °F 68.0 °F 100% 29.67 in 3.0 mi West 5.8 mph - N/A Rain , Thunderstorm Light Rain
2:26 AM 68.0 °F 68.0 °F 100% 29.67 in 4.0 mi WSW 4.6 mph - N/A Rain , Thunderstorm Light Thunderstorms and Rain
2:31 AM 68.0 °F 68.0 °F 100% 29.66 in 8.0 mi West 3.5 mph - N/A Rain , Thunderstorm Light Thunderstorms and Rain
2:41 AM 68.0 °F 68.0 °F 100% 29.65 in 10.0 mi NNW 6.9 mph - N/A   Light Drizzle
2:42 AM 68.0 °F 68.0 °F 100% 29.65 in 10.0 mi NNW 6.9 mph - N/A   Mostly Cloudy
2:58 AM 67.6 °F 67.6 °F 100% 29.63 in 10.0 mi WSW 4.6 mph - 0.29 in   Partly Cloudy
3:58 AM 67.3 °F 67.3 °F 100% 29.62 in 10.0 mi West 4.6 mph - N/A   Partly Cloudy
4:58 AM 66.6 °F 66.6 °F 100% 29.65 in 10.0 mi West 4.6 mph - N/A   Clear
5:11 AM 66.2 °F 66.2 °F 100% 29.66 in 10.0 mi North 11.5 mph - N/A   Partly Cloudy
5:21 AM 66.2 °F 66.2 °F 100% 29.66 in 10.0 mi North 8.1 mph - N/A   Mostly Cloudy
5:26 AM 66.2 °F 66.2 °F 100% 29.67 in 9.0 mi North 8.1 mph - N/A   Mostly Cloudy
5:46 AM 66.2 °F 66.2 °F 100% 29.67 in 10.0 mi NNW 6.9 mph - N/A   Overcast
5:58 AM 66.4 °F 66.4 °F 100% 29.65 in 10.0 mi North 5.8 mph - N/A   Overcast
6:03 AM 66.2 °F 66.2 °F 100% 29.66 in 10.0 mi North 8.1 mph - N/A   Overcast
6:23 AM 66.2 °F 66.2 °F 100% 29.66 in 10.0 mi North 10.4 mph - N/A   Mostly Cloudy
6:33 AM 66.2 °F 66.2 °F 100% 29.67 in 10.0 mi NNW 10.4 mph - N/A   Mostly Cloudy
6:37 AM 66.2 °F 66.2 °F 100% 29.68 in 10.0 mi NNW 9.2 mph - N/A Rain Light Rain
6:47 AM 66.2 °F 66.2 °F 100% 29.69 in 10.0 mi NW 11.5 mph - N/A Rain Light Rain
6:50 AM 66.2 °F 66.2 °F 100% 29.70 in 10.0 mi NW 12.7 mph - N/A   Mostly Cloudy
6:58 AM 66.4 °F 66.4 °F 100% 29.68 in 7.0 mi NNW 16.1 mph - 0.00 in   Overcast
7:08 AM 66.2 °F 66.2 °F 100% 29.71 in 7.0 mi NW 12.7 mph - N/A Rain Light Rain
7:19 AM 66.2 °F 66.2 °F 100% 29.71 in 7.0 mi NW 12.7 mph - N/A   Overcast
7:54 AM 64.4 °F 64.4 °F 100% 29.73 in 10.0 mi NNW 10.4 mph - N/A   Overcast
7:58 AM 64.4 °F 64.4 °F 100% 29.73 in 10.0 mi NNW 10.4 mph - 0.00 in   Overcast
8:14 AM 64.4 °F 64.4 °F 100% 29.74 in 10.0 mi NNW 8.1 mph - N/A   Light Drizzle
8:25 AM 64.4 °F 64.4 °F 100% 29.74 in 10.0 mi NNW 9.2 mph - N/A   Overcast
8:58 AM 65.1 °F 65.1 °F 100% 29.77 in 10.0 mi NNW 6.9 mph - 0.00 in   Overcast
9:37 AM 66.2 °F 66.2 °F 100% 29.78 in 10.0 mi North 13.8 mph - N/A   Light Drizzle
9:54 AM 66.2 °F 66.2 °F 100% 29.79 in 10.0 mi NNW 11.5 mph - N/A   Overcast
9:58 AM 65.3 °F 65.3 °F 100% 29.79 in 10.0 mi NNW 12.7 mph - 0.00 in   Overcast
10:13 AM 66.2 °F 64.4 °F 94% 29.80 in 10.0 mi North 12.7 mph - N/A   Overcast
10:29 AM 66.2 °F 64.4 °F 94% 29.81 in 10.0 mi North 12.7 mph - N/A   Mostly Cloudy
10:41 AM 68.0 °F 62.6 °F 83% 29.82 in 10.0 mi NNE 16.1 mph 21.9 mph N/A   Mostly Cloudy
10:58 AM 69.4 °F 60.8 °F 74% 29.83 in 10.0 mi NNE 16.1 mph 23.0 mph N/A   Overcast
11:58 AM 70.5 °F 59.0 °F 67% 29.86 in 10.0 mi North 13.8 mph 18.4 mph N/A   Scattered Clouds
12:58 PM 73.9 °F 57.4 °F 56% 29.87 in 10.0 mi North 11.5 mph 20.7 mph N/A   Clear
1:22 PM 75.2 °F 59.0 °F 57% 29.87 in 10.0 mi North 12.7 mph 21.9 mph N/A   Clear
1:58 PM 75.9 °F 58.3 °F 54% 29.88 in 10.0 mi NNW 17.3 mph 23.0 mph N/A   Scattered Clouds
2:58 PM 76.1 °F 54.9 °F 48% 29.89 in 10.0 mi NW 16.1 mph - N/A   Partly Cloudy
3:58 PM 76.3 °F 53.6 °F 45% 29.90 in 10.0 mi NW 23.0 mph 28.8 mph N/A   Partly Cloudy
4:58 PM 75.6 °F 56.7 °F 52% 29.91 in 10.0 mi NW 19.6 mph 25.3 mph N/A   Partly Cloudy
5:58 PM 73.2 °F 55.9 °F 55% 29.91 in 10.0 mi NNW 23.0 mph 28.8 mph N/A   Clear
6:58 PM 71.4 °F 54.7 °F 55% 29.92 in 10.0 mi NNW 18.4 mph 27.6 mph N/A   Clear
7:58 PM 69.3 °F 55.2 °F 61% 29.93 in 10.0 mi NNW 16.1 mph 25.3 mph N/A   Clear
8:58 PM 65.8 °F 53.1 °F 63% 29.94 in 10.0 mi NW 11.5 mph - N/A   Clear
9:58 PM 63.9 °F 52.9 °F 67% 29.96 in 10.0 mi NW 10.4 mph - N/A   Clear
10:58 PM 62.6 °F 53.8 °F 73% 29.98 in 10.0 mi NW 10.4 mph - N/A   Clear
11:58 PM 61.2 °F 53.8 °F 77% 29.98 in 10.0 mi NW 12.7 mph 19.6 mph N/A   Clear